Location: Claremont
(33.9858°S, 18.4575°E)
Time: 11:21:56
(UTC+00:00)

Meteor 2-9 Rocket - Pass Details

Date: 03 March 2021
Orbit: 792 x 895 km, 81.3° (Epoch: 09 April)

Event Time Altitude Azimuth Distance (km) Brightness Sun altitude
Rises 19:06:51 0° 191° (S) 3,527 7.9 -22.1°
Reaches altitude 10° 19:09:21 10° 192° (SSW) 2,571 7.2 -22.5°
Maximum altitude 19:15:11 73° 276° (W) 919 4.4 -23.6°
Enters shadow 19:18:35 25° 355° (N) 1,665 5.5 -24.3°
